DELTA 1 DEB, 7072

Orbit data source: Space-Track

DELTA 1 DEB, 7072 is space debris in SSO originally from a launch on Tue, 06 Nov 1973 UTC launched from the Air Force Western Test Range (AFWTR). Debris objects in space refer to the collection of defunct objects orbiting the Earth. Examples of debris include non-operational satellites, rocket bodies, and fragments generated from explosions, collisions, or faulty payload assembly.

Loading next visibility...
Identifier
7072, 1973-086BQ
Orbit
SSO
Country
Flag of USUS
Related business
Manufacturer
Unknown
Mission
Spacecraft
Bus & Motor
Unknown
Mass
Unknown
Launch date (UTC)
1973-11-06 (53 years ago)
Launch vehicle
Unknown
Launch site
Air Force Western Test Range (AFWTR)
Object type
Payload
Rocket body
Debris
Shape & HBR
Unknown shape, 0.2 m
Radar Cross Section
Medium (>0.1 m² and <1 m²)

Expand to show TLE details & history
Last TLE update: 14 hours ago

TLE from 14 hours ago
0 DELTA 1 DEB
1  7072U 73086BQ  26209.14597641 -.00000034  00000-0  75688-4 0  9992
2  7072 101.8414 165.9979 0010529 128.8434 245.0673 12.42683634390402
Epoch: 2026-07-28T03:30Z
TLE epoch observation values (Epoch: 2026-07-28T03:30:12.361Z)
Latitude
13.4731°
Longitude
164.7618°
Altitude
1,500.578 km
Speed
7.114 km/s
True Right ascension
10h 52m 31s
True Declination
13° 24' 10"
Sunlit
Object was in daylight at epoch
Visualization orbit readout
Latitude
Unknown
Longitude
Unknown
Altitude
Unknown
Speed
Unknown
Apparent Right ascension
Unknown
Apparent Declination
Unknown
Sunlit
N/A
Visualization observer readout
Local Sidereal Time
06:29:25
Azimuth
Unknown
Elevation
Unknown
Doppler factor
Unknown
Orbital elements
Apogee altitude
1,501.097 km
Perigee altitude
1,484.522 km
Semi-major axis
7,870.946 km
Eccentricity
0.00105
Inclination
101.8414°
RAAN
165.9979°
Arg. of periapsis
128.8434°
True anomaly
244.95795°
Mean anomaly
245.0673°
Eccentric anomaly
245.01262°
Mean motion
3.10816 °/min
Orbital period
115.82 mins
BSTAR
0.000075688
Loading maneuver chart data...
Computing Atmospheric mass density...
Loading historical data...
Loading historical data...
Loading historical data...
Loading historical data...
Loading historical data...
Loading historical data...
Loading historical data...

Documentation

Showing up to 5 results
|